#timestamp,LO_Frequency,Hit 
1499770815.1,286046995.4,N
1499770835.9,286046995.5,N
1499770855.7,286046995.0,N
1499770875.5,286046997.5,N
1499770895.4,286046995.0,N
1499770915.2,286046997.5,N
1499770935.0,286046996.9,N
1499770935.9,286046996.9,N
1499770955.8,286046998.9,N
1499770975.6,286046999.2,N
1499770995.5,286046999.0,N
1499771015.3,286046999.0,N
1499771035.1,286046997.3,N
1499771055.9,286046996.5,N
1499771075.7,286046996.7,N
1499771095.5,286046997.3,N
1499771115.4,286046997.5,N
1499771135.2,286046995.1,N
1499771155.1,286046997.5,N
1499771156.0,286046997.5,N
1499771175.8,286046995.0,N
1499771195.6,286046995.6,N
1499771215.5,286046998.0,N
1499771235.3,286046995.4,N
1499771255.1,286046997.9,N
1499771275.9,286046997.5,N
1499771295.7,286046997.8,N
1499771315.6,286046997.6,N
1499771335.4,286046997.9,N
1499771355.2,286046997.3,N
1499771375.1,286046998.0,N
1499771376.0,286046998.0,N
1499771395.8,286046996.7,N
1499771415.6,286046997.5,N
1499771435.5,286046998.4,N
1499771455.3,286046997.0,N
1499771475.6,286046996.6,N
1499771495.5,286046997.1,N
1499771515.3,286046999.6,N
1499771535.1,286046996.9,N
1499771555.9,286046999.5,N
1499771575.7,286046999.4,N
1499771595.5,286046998.8,N
1499771615.4,286046999.5,N
1499771635.2,286046996.8,N
1499771655.1,286046997.8,N
1499771656.0,286046997.8,N
1499771675.8,286046997.5,N
1499771695.6,286046995.0,N
1499771715.5,286046996.7,N
1499771735.3,286046995.3,N
1499771755.1,286046995.5,N
1499771775.9,286046997.5,N
1499771795.7,286046995.2,N
1499771815.6,286046995.7,N
1499771835.4,286046997.9,N
1499771855.2,286047000.1,N
1499771875.1,286047002.4,N
1499771876.0,286047002.4,N
1499771895.8,286047000.9,N
1499771915.6,286047000.7,N
1499771935.5,286046999.4,N
1499771955.3,286046999.3,N
1499771975.2,286047011.9,N
1499771995.9,286046994.9,N
1499772015.7,286046995.4,N
1499772035.6,286046997.8,N
1499772055.4,286046997.0,N
1499772075.2,286046995.1,N
1499772095.1,286046994.0,N
1499772096.0,286046994.0,N
1499772115.8,286046995.9,N
1499772135.7,286046995.9,N
1499772155.5,286046993.7,N
1499772175.3,286046996.3,N
1499772195.2,286046994.5,N
1499772215.0,286046992.7,N
1499772215.9,286046992.7,N
1499772235.7,286046990.9,N
1499772255.6,286046988.6,N
1499772275.4,286046987.3,N
1499772295.3,286046987.7,N
1499772315.1,286046989.8,N
1499772316.0,286046989.8,N
1499772335.8,286046989.0,N
1499772355.7,286046990.8,N
1499772375.5,286046994.7,N
1499772395.3,286046995.9,N
1499772415.2,286046991.8,N
1499772435.0,286046992.4,N
1499772435.9,286046992.4,N
1499772455.8,286046990.7,N
1499772475.6,286046992.6,N
1499772495.4,286046991.9,N
1499772515.3,286046992.7,N
1499772535.1,286046990.4,N
1499772555.8,286046992.7,N
1499772575.7,286046994.8,N
1499772595.5,286046994.4,N
1499772615.4,286046994.2,N
1499772635.2,286046994.2,N
1499772655.0,286046993.5,N
1499772655.9,286046993.5,N
1499772675.8,286046991.8,N
1499772695.6,286046994.6,N
1499772715.4,286046991.8,N
1499772735.3,286046994.7,N
1499772755.1,286046991.8,N
1499772775.9,286046992.2,N
1499772795.7,286046992.0,N
1499772815.5,286046992.1,N
1499772835.4,286046992.5,N
1499772855.2,286046992.8,N
1499772875.0,286046990.4,N
1499772875.9,286046990.4,N
1499772895.8,286046988.8,N
1499772915.6,286046989.1,N
1499772935.5,286046989.3,N
1499772955.3,286046986.9,N
1499772975.1,286046989.4,N
1499772995.9,286046991.2,N
1499773015.7,286046990.3,N
1499773035.5,286046990.3,N
1499773055.4,286046990.1,N
1499773075.2,286046990.4,N
1499773095.1,286046991.4,N
1499773096.0,286046991.4,N
1499773115.8,286046989.4,N
1499773135.6,286046990.9,N
1499773155.5,286046990.7,N
1499773175.3,286046991.1,N
1499773195.1,286046990.2,N
1499773215.9,286046993.2,N
1499773235.7,286046992.7,N
1499773255.6,286046990.8,N
1499773275.4,286046991.3,N
1499773295.2,286046990.7,N
1499773315.1,286046992.5,N
1499773316.0,286046992.5,N
1499773335.8,286046992.5,N
1499773355.6,286046992.6,N
1499773375.5,286046992.7,N
1499773395.3,286046993.2,N
1499773415.2,286046991.9,N
1499773435.9,286046992.9,N
1499773455.7,286046992.1,N
1499773475.6,286046990.9,N
1499773495.4,286046990.8,N
1499773515.2,286046990.6,N
1499773535.1,286046993.0,N
1499773536.0,286046993.0,N
1499773555.8,286046991.8,N
1499773575.7,286046993.0,N
1499773595.5,286046990.9,N
1499773615.3,286046990.3,N
1499773635.2,286046990.6,N
1499773655.0,286046988.5,N
1499773655.9,286046988.5,N
1499773675.7,286046991.0,N
1499773695.6,286046991.2,N
1499773715.4,286046990.4,N
1499773735.3,286046990.7,N
1499773755.1,286046990.8,N
1499773756.0,286046990.8,N
1499773775.8,286046988.5,N
1499773795.7,286046991.4,N
1499773815.5,286046988.5,N
1499773835.3,286046987.0,N
1499773855.2,286046989.8,N
1499773875.0,286046991.5,N
1499773875.9,286046991.5,N
1499773895.8,286046988.9,N
1499773915.6,286046985.3,N
1499773935.4,286046988.4,N
1499773955.3,286046988.4,N
1499773975.1,286046990.0,N
1499773995.8,286046989.7,N
1499774015.7,286046989.0,N
1499774035.5,286046988.7,N
1499774055.4,286046988.9,N
1499774075.2,286046989.2,N
1499774095.0,286046987.1,N
1499774095.9,286046987.1,N
1499774115.8,286046987.1,N
1499774135.6,286046989.8,N
1499774155.4,286046991.6,N
1499774175.3,286046988.5,N
1499774195.1,286046991.1,N
1499774215.9,286046990.8,N
1499774235.7,286046990.9,N
1499774255.5,286046990.6,N
1499774275.4,286046992.4,N
1499774295.2,286046992.8,N
1499774315.0,286046991.3,N
1499774315.9,286046991.3,N
1499774335.8,286046990.4,N
1499774355.6,286046990.7,N
1499774375.5,286046990.5,N
1499774395.3,286046990.2,N
